Tracking 29892 objects as of 21-Nov-2024
HD Live streaming from Space Station
objects crossing your sky now

STARLINK-3951

Track STARLINK-3951 now!
10-day predictions
STARLINK-3951 is classified as:


NORAD ID: 52533
Int'l Code: 2022-051A
Perigee: 542.6 km
Apogee: 544.4 km
Inclination: 53.2 °
Period: 95.4 minutes
Semi major axis: 6914 km
RCS: Unknown
Launch date: May 13, 2022
Source: United States (US)
Launch site: AIR FORCE WESTERN TEST RANGE (AFWTR)
Your satellite tracking list
Your tracking list is empty




NASA's NSSDC Master Catalog

Two Line Element Set (TLE):
1 52533U 22051A   24325.75571508  .00004249  00000-0  27664-3 0  9999
2 52533  53.2147  96.6471 0001286 109.4663 250.6469 15.09937266139891
Source of the keplerian elements: AFSPC